Regional Weather Roundup
Issued by NWS

Home | Current Version | Previous Version | Text Only | Print | Product List | Glossary Off
Versions: 1 2 3 4 5 6 7 8 9 10 11 12 13 14 15 16 17 18 19 20 21 22 23 24 25 26 27 28 29 30 31 32 33 34 35 36 37 38 39 40 41 42 43 44 45 46 47 48 49 50

000
ASUS45 KBOU 280807
RWRCO

WEATHER ROUNDUP FOR COLORADO
NATIONAL WEATHER SERVICE DENVER/BOULDER CO
200 AM MDT SAT MAR 28 2015

NOTE: "FAIR" INDICATES FEW OR NO CLOUDS BELOW 12000 FEET WITH NO
SIGNIFICANT WEATHER AND/OR OBSTRUCTIONS TO VISIBILITY.

COZ001>005-013-030-031-280900-
...NORTHWEST COLORADO...

CITY           SKY/WX    TMP DP  RH WIND       PRES   REMARKS
CRAIG          CLEAR     34  28  79 CALM      30.22F
HAYDEN         CLEAR     39  27  60 SE6       30.22F
MEEKER         PTCLDY    39  28  64 NE3       30.24F
MOUNT WERNER   NOT AVBL
STEAMBOAT SPGS CLEAR     39  30  70 SW3       30.24S
WALDEN         CLEAR     30  27  86 E8        30.26F WCI  23
$$

COZ006>008-011-280900-
...WEST CENTRAL VALLEYS...

CITY           SKY/WX    TMP DP  RH WIND       PRES   REMARKS
GRAND JUNCTION CLEAR     48  25  40 E5        30.17F
MONTROSE       CLEAR     47  25  42 SE13      30.24F
EAGLE          PTCLDY    36  27  69 E5        30.29S
RIFLE          CLEAR     42  26  53 CALM      30.22F
DELTA          CLEAR     47  26  42 NE7       30.22S
NUCLA          CLEAR     45  25  45 SE3       30.28S
$$

COZ017>023-064>068-280900-
...SOUTHWEST COLORADO...

CITY           SKY/WX    TMP DP  RH WIND       PRES   REMARKS
DURANGO        CLEAR     44  21  40 SW6       30.26S
CORTEZ         CLEAR     34  22  61 E6        30.25F WCI  29
PAGOSA SPRINGS CLEAR     34  23  64 CALM      30.31S
TELLURIDE      PTCLDY    38  23  55 SE6       30.40F
WOLF CREEK PAS CLEAR     32  16  51 N6        30.51S WCI  26
$$

COZ009-010-012-014-032>034-037-058>063-280900-
...CENTRAL COLORADO...

CITY           SKY/WX    TMP DP  RH WIND       PRES   REMARKS
ASPEN          PTCLDY    36  24  62 S6        30.30F
BUENA VISTA    CLEAR     34  25  69 CALM      30.31R
COPPER MTN     PTCLDY    34  19  55 W7        30.44F WCI  28
BERTHOUD PASS  FAIR      28  21  74 NW30G37   30.42F WCI  13
COTTONWOOD PAS CLEAR     43  16  33 W14       30.37S
GUNNISON       CLEAR     30  21  69 CALM      30.36S
KREMMLING      CLEAR     32  27  80 CALM      30.29S
LEADVILLE      CLEAR     31  17  56 NE6       30.36F WCI  25
SALIDA         CLEAR     39  23  53 W6        30.37S
SUNLIGHT       PTCLDY    37  23  56 CALM      30.45F
WILKERSON PASS PTCLDY    32  18  55 W7        30.42F WCI  26
$$

COZ069>075-280900-
...SAN LUIS VALLEY/SANGRE DE CRISTO MOUNTAINS...

CITY           SKY/WX    TMP DP  RH WIND       PRES   REMARKS
ALAMOSA        PTCLDY    31  16  54 E3        30.28S
LA VETA PASS   CLEAR     39  21  48 W8        30.37S
SAGUACHE       CLEAR     45  21  39 N14       30.31S
$$

COZ035-036-038>040-280900-
...NORTHERN COLORADO FRONT RANGE...

CITY           SKY/WX    TMP DP  RH WIND       PRES   REMARKS
DENVER INTL AP PTCLDY    50  30  46 SW12      30.09F
DMNS CITY PARK   N/A     52  26  35 S8        30.10F
AURORA         PTCLDY    48  28  46 SW9       30.12F
FRONT RANGE AP PTCLDY    52  32  46 SW14      30.10F
ERIE MUNI ARPT CLEAR     48  30  49 CALM      30.08F
BOULDER MUN AP CLEAR     54  28  37 S5        30.09F
CENTENNIAL     PTCLDY    50  27  40 SW13      30.13F
BROOMFIELD     CLEAR     55  28  35 W15       30.11F
FORT COLLINS   PTCLDY    52  28  40 CALM      30.08F
LONGMONT       PTCLDY    49  31  49 W5        30.10F
$$

COZ041-046-047-076>085-087-088-280900-
...PIKES PEAK/PALMER DIVIDE AND SOUTHERN FOOTHILLS...

CITY           SKY/WX    TMP DP  RH WIND       PRES   REMARKS
COLO. SPRINGS  PTCLDY    47  24  40 CALM      30.17F
A. F. ACADEMY  CLEAR     42  25  50 NE9       30.17F
ELLICOTT       CLEAR    N/A N/A N/A CALM      30.15F
FALCON         CLEAR     45  22  39 NW9       30.20F
FORT CARSON    CLEAR     46  29  51 W2        30.14
LIMON          CLEAR     39  32  76 NW6       30.10F
MONUMENT HILL  CLEAR     39  27  60 SW9       30.19S
TRINIDAD       CLEAR     47  30  51 W16       30.16F
$$

COZ042>045-048>051-090-091-280900-
...NORTHEAST COLORADO...

CITY           SKY/WX    TMP DP  RH WIND       PRES   REMARKS
GREELEY ARPT   PTCLDY    39  25  56 N8        30.05F
AKRON          CLEAR     45  30  55 W8        30.05S
BURLINGTON     CLEAR     42  33  70 W9        30.03F
WRAY           MOCLDY    42  33  71 SW6       30.01S
STERLING       CLEAR     36  30  80 CALM      30.02F
HOLYOKE        MOCLDY    41  32  70 W9        30.00F
FORT MORGAN    CLEAR    N/A N/A N/A W8        30.05S
$$

COZ086-089-092>099-280900-
...SOUTHEAST COLORADO...

CITY           SKY/WX    TMP DP  RH WIND       PRES   REMARKS
PUEBLO         CLEAR     43  33  68 W6        30.11F
LA JUNTA       CLEAR     46  33  60 SW6       30.08S
LAMAR          CLEAR     46  34  62 S6        30.03F
SPRINGFIELD      N/A     45  32  60 SW10      30.08F
$$



USA.gov is the U.S. government's official web portal to all federal, state and local government web resources and services.